grantspace.org alexa rank chart, grantspace.org alexa rank daily changes

grantspace.org alexa rank chart, grantspace.org alexa rank daily changes

grantspace.org
Actual rank:
113 789

RANK HISTORY

Date Rank Diff
2017/12/18 113 789 -668
2017/12/17 114 457 -292
2017/12/16 114 749 +814
2017/12/15 113 935 +2 345
2017/12/14 111 590 -723
2017/12/13 112 313 -2 158
2017/12/12 114 471 -1 155
2017/12/11 115 626 -1 660
2017/12/10 117 286 -410
2017/12/09 117 696 -2 795
2017/12/08 120 491 -283
2017/12/07 120 774 +1 008
2017/12/06 119 766 -1 876
2017/12/05 121 642 -92
2017/12/04 121 734 -64
2017/12/03 121 798 -1 680
2017/12/02 123 478 +388
2017/12/01 123 090 +1 600
2017/11/30 121 490 +1 168
2017/11/29 120 322 +2 574
2017/11/28 117 748 +1 043
2017/11/27 116 705 +698
2017/11/26 116 007 +715
2017/11/25 115 292 +166
2017/11/24 115 126 -1 975
2017/11/23 117 101 -1 031
2017/11/22 118 132 +237
2017/11/21 117 895 +1 188
2017/11/20 116 707 -2 091
2017/11/19 118 798 -578
2017/11/18 119 376 +1 270
2017/11/17 118 106 -5
2017/11/16 118 111 -2 151
2017/11/15 120 262 -2 142
2017/11/14 122 404 +1 391
2017/11/13 121 013 +48
2017/11/12 120 965 +42
2017/11/11 120 923 -843
2017/11/10 121 766 -504
2017/11/09 122 270 -9
2017/11/08 122 279 -2 137
2017/11/07 124 416 -219
2017/11/06 124 635 +1 465
2017/11/05 123 170 -1 206
2017/11/04 124 376 +1 039
2017/11/03 123 337 +28
2017/11/02 123 309 -1 860
2017/11/01 125 169 -632
2017/10/31 125 801 -851
2017/10/30 126 652 +953
2017/10/29 125 699 -69
2017/10/28 125 768 +244
2017/10/27 125 524 -169
2017/10/26 125 693 +1 577
2017/10/25 124 116 +1 214
2017/10/24 122 902 +2 773
2017/10/23 120 129 +2 523
2017/10/22 117 606 -960
2017/10/21 118 566 -1 928
2017/10/20 120 494 -44
2017/10/19 120 538 +1 182
2017/10/18 119 356

WIDGET FOR YOUR SITE

DOMAINS WITH THE NEAREST RANK

Domain Rank
berlitz-blog.com 113 784
dpu.ac.th 113 785
peiyinge.com 113 786
90daykorean.com 113 787
islamtoday.net 113 788
grantspace.org 113 789
globis.jp 113 790
xxxlesnina.hr 113 791
alliance-games.com 113 792
lurninfluencer.com 113 793
jccsecure.com 113 794

DOMAINS WITH THE NEAREST RANK BY TLD .org

Domain Rank
riperam.org 113 670
youngwomenshealth.org 113 703
elmhurst205.org 113 721
ifixit.org 113 723
learnjavaonline.org 113 728
grantspace.org 113 789
bodymeasurements.org 113 804
yeastgenome.org 113 813
fmoviez.org 113 848
animeron.org 113 875
necu.org 113 879